Time,TemperatureF,DewpointF,PressureIn,WindDirection,WindDirectionDegrees,WindSpeedMPH,WindSpeedGustMPH,Humidity,HourlyPrecipIn,Conditions,Clouds,dailyrainin,SoftwareType,DateUTC
2013-07-23 00:02:00,72.0,71.0,29.96,WNW,283,3.0,8.0,98,0.00,,,1.11,,2013-07-23 05:02:00,
2013-07-23 00:22:00,72.0,71.0,29.95,West,281,2.0,6.0,98,0.00,,,1.11,,2013-07-23 05:22:00,
2013-07-23 00:33:00,72.0,71.0,29.95,WSW,248,2.0,6.0,98,0.00,,,1.11,,2013-07-23 05:33:00,
2013-07-23 00:44:00,72.0,71.0,29.94,West,278,3.0,7.0,98,0.00,,,1.11,,2013-07-23 05:44:00,
2013-07-23 00:52:00,72.0,71.0,29.94,West,278,3.0,7.0,98,0.00,,,1.11,,2013-07-23 05:52:00,
2013-07-23 01:01:00,72.0,71.0,29.94,WNW,293,2.0,6.0,98,0.00,,,1.11,,2013-07-23 06:01:00,
2013-07-23 01:22:00,72.0,71.0,29.95,West,260,3.0,5.0,98,0.00,,,1.11,,2013-07-23 06:22:00,
2013-07-23 01:33:00,72.0,71.0,29.95,West,278,1.0,7.0,98,0.00,,,1.11,,2013-07-23 06:33:00,
2013-07-23 01:42:00,72.0,71.0,29.95,West,280,2.0,5.0,98,0.00,,,1.11,,2013-07-23 06:42:00,
2013-07-23 01:52:00,72.0,71.0,29.95,West,280,2.0,5.0,98,0.00,,,1.11,,2013-07-23 06:52:00,
2013-07-23 02:01:00,72.0,71.0,29.95,WNW,283,2.0,5.0,98,0.00,,,1.11,,2013-07-23 07:01:00,
2013-07-23 02:12:00,72.0,71.0,29.95,WNW,283,2.0,5.0,98,0.00,,,1.11,,2013-07-23 07:12:00,
2013-07-23 02:22:00,72.0,71.0,29.95,WNW,284,3.0,7.0,98,0.00,,,1.11,,2013-07-23 07:22:00,
2013-07-23 02:33:00,72.0,71.0,29.94,WSW,248,2.0,6.0,97,0.00,,,1.11,,2013-07-23 07:33:00,
2013-07-23 02:42:00,71.0,70.0,29.95,WSW,240,1.0,3.0,98,0.00,,,1.11,,2013-07-23 07:42:00,
2013-07-23 02:52:00,71.0,70.0,29.95,WSW,240,1.0,3.0,98,0.00,,,1.11,,2013-07-23 07:52:00,
2013-07-23 03:01:00,71.0,70.0,29.95,SW,228,1.0,3.0,98,0.00,,,1.11,,2013-07-23 08:01:00,
2013-07-23 03:22:00,71.0,70.0,29.96,West,276,0.0,2.0,98,0.00,,,1.11,,2013-07-23 08:22:00,
2013-07-23 03:33:00,71.0,70.0,29.96,WSW,240,0.0,1.0,98,0.00,,,1.11,,2013-07-23 08:33:00,
2013-07-23 03:52:00,71.0,70.0,29.97,SW,228,0.0,2.0,98,0.00,,,1.11,,2013-07-23 08:52:00,
2013-07-23 04:01:00,71.0,70.0,29.97,WSW,238,0.0,1.0,98,0.00,,,1.11,,2013-07-23 09:01:00,
2013-07-23 04:22:00,71.0,70.0,29.97,WNW,285,0.0,2.0,98,0.00,,,1.11,,2013-07-23 09:22:00,
2013-07-23 04:33:00,71.0,70.0,29.97,West,276,0.0,1.0,98,0.00,,,1.11,,2013-07-23 09:33:00,
2013-07-23 04:53:00,71.0,70.0,29.97,WSW,242,0.0,1.0,98,0.00,,,1.11,,2013-07-23 09:53:00,
2013-07-23 05:22:00,72.0,71.0,29.97,West,276,1.0,4.0,98,0.00,,,1.11,,2013-07-23 10:22:00,
2013-07-23 05:32:00,72.0,71.0,29.97,West,278,0.0,4.0,98,0.00,,,1.11,,2013-07-23 10:32:00,
2013-07-23 05:52:00,72.0,71.0,29.98,West,260,1.0,5.0,97,0.00,,,1.11,,2013-07-23 10:52:00,
2013-07-23 06:02:00,72.0,71.0,29.98,WNW,283,0.0,3.0,97,0.00,,,1.11,,2013-07-23 11:02:00,
2013-07-23 06:22:00,72.0,71.0,29.98,WSW,248,0.0,2.0,97,0.00,,,1.11,,2013-07-23 11:22:00,
2013-07-23 06:32:00,72.0,71.0,29.98,WSW,252,1.0,3.0,98,0.00,,,1.11,,2013-07-23 11:32:00,
2013-07-23 06:43:00,72.0,71.0,29.98,West,276,0.0,2.0,98,0.00,,,1.11,,2013-07-23 11:43:00,
2013-07-23 06:52:00,72.0,71.0,29.98,West,276,0.0,2.0,98,0.00,,,1.11,,2013-07-23 11:52:00,
2013-07-23 07:02:00,72.0,71.0,29.98,WSW,252,0.0,3.0,98,0.00,,,1.11,,2013-07-23 12:02:00,
2013-07-23 07:11:00,72.0,71.0,29.98,WSW,252,0.0,3.0,98,0.00,,,1.11,,2013-07-23 12:11:00,
2013-07-23 07:22:00,73.0,72.0,29.98,West,264,1.0,4.0,98,0.00,,,1.11,,2013-07-23 12:22:00,
2013-07-23 07:43:00,73.0,72.0,29.98,SW,224,4.0,8.0,98,0.00,,,1.11,,2013-07-23 12:43:00,
2013-07-23 08:22:00,74.0,73.0,29.98,WNW,284,3.0,6.0,97,0.00,,,1.11,,2013-07-23 13:22:00,
2013-07-23 08:32:00,75.0,74.0,29.98,West,278,2.0,9.0,97,0.00,,,1.11,,2013-07-23 13:32:00,
2013-07-23 08:52:00,76.0,75.0,29.98,WNW,290,1.0,7.0,96,0.00,,,1.11,,2013-07-23 13:52:00,
2013-07-23 09:02:00,76.0,74.0,29.98,West,275,4.0,9.0,95,0.00,,,1.11,,2013-07-23 14:02:00,
2013-07-23 09:12:00,76.0,74.0,29.98,West,275,4.0,9.0,95,0.00,,,1.11,,2013-07-23 14:12:00,
2013-07-23 09:22:00,77.0,75.0,29.98,West,274,3.0,8.0,94,0.00,,,1.11,,2013-07-23 14:22:00,
2013-07-23 09:44:00,78.0,75.0,29.98,WNW,283,3.0,7.0,92,0.00,,,1.11,,2013-07-23 14:44:00,
2013-07-23 09:53:00,78.0,75.0,29.98,WNW,283,3.0,7.0,92,0.00,,,1.11,,2013-07-23 14:53:00,
2013-07-23 10:24:00,80.0,77.0,29.98,West,260,2.0,8.0,91,0.00,,,1.11,,2013-07-23 15:24:00,
2013-07-23 10:32:00,80.0,76.0,29.98,WNW,285,2.0,9.0,89,0.00,,,1.11,,2013-07-23 15:32:00,
2013-07-23 10:52:00,82.0,78.0,29.98,West,276,4.0,7.0,87,0.00,,,1.11,,2013-07-23 15:52:00,
2013-07-23 11:01:00,82.0,78.0,29.98,WNW,282,3.0,7.0,87,0.00,,,1.11,,2013-07-23 16:01:00,
2013-07-23 11:22:00,83.0,78.0,29.98,North,349,2.0,7.0,86,0.00,,,1.11,,2013-07-23 16:22:00,
2013-07-23 11:33:00,83.0,78.0,29.97,WNW,289,0.0,8.0,85,0.00,,,1.11,,2013-07-23 16:33:00,
2013-07-23 11:43:00,84.0,78.0,29.96,WSW,240,2.0,6.0,82,0.00,,,1.11,,2013-07-23 16:43:00,
2013-07-23 11:52:00,84.0,78.0,29.96,WSW,240,2.0,6.0,82,0.00,,,1.11,,2013-07-23 16:52:00,
2013-07-23 12:02:00,84.0,78.0,29.96,West,270,3.0,7.0,81,0.00,,,1.11,,2013-07-23 17:02:00,
2013-07-23 12:11:00,84.0,78.0,29.96,West,270,3.0,7.0,81,0.00,,,1.11,,2013-07-23 17:11:00,
2013-07-23 12:22:00,85.0,79.0,29.95,WSW,250,3.0,7.0,82,0.00,,,1.11,,2013-07-23 17:22:00,
2013-07-23 12:42:00,86.0,79.0,29.93,SSW,211,2.0,8.0,80,0.00,,,1.11,,2013-07-23 17:42:00,
2013-07-23 12:54:00,86.0,79.0,29.93,SSW,211,2.0,8.0,80,0.00,,,1.11,,2013-07-23 17:54:00,
2013-07-23 13:04:00,86.0,78.0,29.93,SSW,203,4.0,7.0,78,0.00,,,1.11,,2013-07-23 18:04:00,
2013-07-23 13:25:00,86.0,78.0,29.92,SW,229,3.0,7.0,78,0.00,,,1.11,,2013-07-23 18:25:00,
2013-07-23 13:34:00,86.0,79.0,29.91,SSW,208,1.0,9.0,79,0.00,,,1.11,,2013-07-23 18:34:00,
2013-07-23 13:48:00,87.0,79.0,29.91,WSW,250,4.0,9.0,78,0.00,,,1.11,,2013-07-23 18:48:00,
2013-07-23 13:55:00,87.0,79.0,29.91,WSW,250,4.0,9.0,78,0.00,,,1.11,,2013-07-23 18:55:00,
2013-07-23 14:27:00,88.0,79.0,29.90,WSW,242,3.0,9.0,75,0.00,,,1.11,,2013-07-23 19:27:00,
2013-07-23 14:46:00,88.0,78.0,29.89,WSW,245,5.0,10.0,72,0.00,,,0.76,,2013-07-23 19:46:00,
2013-07-23 14:54:00,88.0,78.0,29.88,West,276,6.0,14.0,72,0.00,,,0.76,,2013-07-23 19:54:00,
2013-07-23 15:06:00,88.0,78.0,29.88,West,276,6.0,11.0,73,0.00,,,0.76,,2013-07-23 20:06:00,
2013-07-23 15:13:00,88.0,78.0,29.88,West,276,6.0,11.0,73,0.00,,,0.76,,2013-07-23 20:13:00,
2013-07-23 15:24:00,87.0,77.0,29.87,West,269,5.0,12.0,72,0.00,,,0.76,,2013-07-23 20:24:00,
2013-07-23 15:45:00,88.0,79.0,29.87,SW,229,3.0,7.0,74,0.00,,,0.68,,2013-07-23 20:45:00,
2013-07-23 16:23:00,89.0,78.0,29.85,West,280,4.0,11.0,71,0.00,,,0.68,,2013-07-23 21:23:00,
2013-07-23 16:55:00,87.0,77.0,29.85,WNW,285,6.0,12.0,73,0.00,,,0.53,,2013-07-23 21:55:00,
2013-07-23 17:12:00,85.0,76.0,29.86,WSW,238,8.0,13.0,75,0.02,,,0.55,,2013-07-23 22:12:00,
2013-07-23 17:24:00,76.0,72.0,29.86,WNW,283,7.0,20.0,88,0.20,,,0.73,,2013-07-23 22:24:00,
2013-07-23 17:57:00,71.0,69.0,29.93,WNW,283,4.0,12.0,95,0.37,,,0.86,,2013-07-23 22:57:00,
2013-07-23 18:36:00,70.0,69.0,29.91,West,264,2.0,8.0,96,0.22,,,0.95,,2013-07-23 23:36:00,
2013-07-23 18:44:00,70.0,69.0,29.89,West,270,0.0,4.0,97,0.10,,,0.96,,2013-07-23 23:44:00,
2013-07-23 18:57:00,70.0,69.0,29.89,West,270,0.0,4.0,97,0.10,,,0.96,,2013-07-23 23:57:00,
2013-07-23 19:09:00,70.0,69.0,29.89,WSW,248,0.0,1.0,97,0.04,,,0.96,,2013-07-24 00:09:00,
2013-07-23 19:14:00,70.0,69.0,29.89,West,267,0.0,1.0,97,0.03,,,0.96,,2013-07-24 00:14:00,
2013-07-23 19:26:00,70.0,69.0,29.89,West,267,0.0,1.0,97,0.03,,,0.96,,2013-07-24 00:26:00,
2013-07-23 19:48:00,70.0,69.0,29.89,SSW,212,0.0,1.0,97,0.00,,,0.96,,2013-07-24 00:48:00,
2013-07-23 19:55:00,70.0,69.0,29.89,SSW,212,0.0,1.0,97,0.00,,,0.96,,2013-07-24 00:55:00,
2013-07-23 20:04:00,70.0,69.0,29.88,SE,134,0.0,2.0,97,0.00,,,0.96,,2013-07-24 01:04:00,
2013-07-23 20:14:00,70.0,69.0,29.88,SE,134,0.0,2.0,97,0.00,,,0.96,,2013-07-24 01:14:00,
2013-07-23 20:24:00,70.0,69.0,29.89,South,177,0.0,1.0,97,0.00,,,0.52,,2013-07-24 01:24:00,
2013-07-23 20:33:00,70.0,69.0,29.90,WSW,245,1.0,3.0,97,0.00,,,0.52,,2013-07-24 01:33:00,
2013-07-23 20:57:00,70.0,69.0,29.91,WSW,248,0.0,6.0,97,0.00,,,0.52,,2013-07-24 01:57:00,
2013-07-23 21:05:00,70.0,69.0,29.91,NW,305,0.0,3.0,97,0.00,,,0.52,,2013-07-24 02:05:00,
2013-07-23 21:27:00,70.0,69.0,29.91,WSW,249,0.0,2.0,98,0.00,,,0.47,,2013-07-24 02:27:00,
2013-07-23 21:47:00,70.0,69.0,29.91,West,270,0.0,1.0,97,0.00,,,0.47,,2013-07-24 02:47:00,
2013-07-23 22:13:00,70.0,69.0,29.92,WSW,245,0.0,2.0,98,0.00,,,0.47,,2013-07-24 03:13:00,
2013-07-23 22:24:00,70.0,69.0,29.91,WSW,246,1.0,4.0,98,0.00,,,0.47,,2013-07-24 03:24:00,
2013-07-23 22:45:00,69.0,68.0,29.90,WSW,238,0.0,3.0,98,0.00,,,0.47,,2013-07-24 03:45:00,
2013-07-23 22:55:00,69.0,68.0,29.90,WSW,257,1.0,4.0,98,0.00,,,0.47,,2013-07-24 03:55:00,
2013-07-23 23:01:00,69.0,68.0,29.89,WSW,240,2.0,5.0,98,0.00,,,0.47,,2013-07-24 04:01:00,
2013-07-23 23:11:00,69.0,68.0,29.89,WSW,240,2.0,5.0,98,0.00,,,0.47,,2013-07-24 04:11:00,
2013-07-23 23:22:00,69.0,68.0,29.89,West,271,0.0,3.0,98,0.00,,,0.47,,2013-07-24 04:22:00,
2013-07-23 23:43:00,69.0,68.0,29.90,West,277,0.0,3.0,98,0.00,,,0.47,,2013-07-24 04:43:00,
2013-07-23 23:52:00,69.0,68.0,29.90,West,277,0.0,3.0,98,0.00,,,0.47,,2013-07-24 04:52:00,